Погода в Юларе

Австралия     25°14′29″S   130°59′16″E
темп.,
°C
ветер,
м/с
пор.,
м/с
влажн.,
%
обл.,
%
осадки,
мм/ч
давл.,
гПа
погр.,
м
8 мая, сб
сб800:30+20ююз5959100 0.0 1016520
03:30+18ююв6878100 0.2 1015277
06:30+17ююв3382100 0.6 1016109
09:30+19зсз347214 1.3 1017340
12:30+23з355224 0.6 10151239
15:30+25з2342100 1.1 10132028
18:30+23ссз224880 0.0 101427
21:30+21юз115413 0.0 101611
9 мая, вс
вс900:30+19юв510440 0.0 1016152
03:30+17ююв511530 0.0 1016188
06:30+15юв49660 0.0 1018171
09:30+20вюв89560 0.0 1019558
12:30+25вюв54360 0.0 10171551
15:30+26вюв212869 0.0 10142528
18:30+23юв333398 0.0 101615
21:30+21юв59382 0.0 1018122
10 мая, пн
пн1000:30+20юв814482 0.0 1018331
03:30+17ююв611570 0.0 1018221
06:30+15юв48630 0.0 1020153
09:30+19вюв79480 0.0 1022638
12:30+24вюв66352 0.0 10201474
15:30+25вюв44320 0.0 10172033
18:30+22юв45390 0.0 101960
21:30+19ююв57450 0.0 102193
11 мая, вт
вт1100:30+17юв611420 0.0 1021242
03:30+15вюв49460 0.0 1021165
06:30+14вюв49520 0.0 1022155
09:30+18вюв68410 0.0 1023525
12:30+23вюв55310 0.0 10211316
15:30+24вюв55250 0.0 10181746
18:30+21юв44330 0.0 101931
21:30+18вюв44420 0.0 102144
12 мая, ср
ср1200:30+16в45510 0.0 102158
03:30+15в34580 0.0 102044
06:30+14в44630 0.0 102244
09:30+18в57480 0.0 1022475
12:30+23всв553446 0.0 10191517
15:30+25в3328100 0.0 10171732
18:30+21вюв333452 0.0 101822
21:30+19вюв333899 0.0 102030